STARLINK-32564, 61924

Orbit data source: Space-Track

STARLINK-32564, 61924 is a payload satellite owned by SpaceX/Seattle (US) in LEO that was launched on Mon, 11 Nov 2024 UTC via an FALCON 9 launch vehicle from the Air Force Eastern Test Range (AFETR). Payload-class satellites include a variety of spacecraft equipped with specific instruments for various scientific and technological missions. These include communications satellites like Starlink; space stations such as the ISS; scientific satellites like the Hubble; Earth observation satellites from companies like Planet Labs, Umbra, and HawkEye 360; GPS; miniature CubeSats for education and research; and military/defense satellites.

Loading next visibility...
Identifier
61924, 2024-207N
Orbit
LEO
Last TLE update
14 hours ago
Origin
Manufacturer
SpaceX/Seattle
Mission
Operational Commercial Communications
Bus & Motor
STARLINK V2M, Unknown motor
Mass
730 kg wet, ~700 kg dry
Launch date (UTC)
2024-11-11 (8 months ago)
Launch vehicle
FALCON 9
Launch site
Air Force Eastern Test Range (AFETR)
Object type
Payload
Rocket body
Debris
Shape & HBR
Box + 2 Pan, 29 m
Radar Cross Section
36.964 m², Large (>1 m²)

Expand to show TLE details & history

TLE from 14 hours ago
0 STARLINK-32564
1 61924U 24207N   25186.24025635  .00022004  00000-0  80651-3 0  9997
2 61924  42.9989 243.0302 0001186 265.5354  94.5362 15.27588853 36836
Epoch: 2025-07-05T05:45Z
TLE epoch observation values (Epoch: 2025-07-05T05:45:58.148Z)
Latitude
-0.00004°
Longitude
-126.94326°
Altitude
482.862 km
Speed
7.626 km/s
True Right ascension
16h 12m 07s
True Declination
0° 00' 00"
Sunlit
Object was in full shadow at epoch
Visualization orbit readout
Latitude
34.552°
Longitude
-83.06898°
Altitude
484.993 km
Speed
7.628 km/s
Apparent Right ascension
19h 33m 40s
Apparent Declination
-1° 05' 12"
Sunlit
Object is in full shadow
Visualization observer readout
Local Sidereal Time
08:03:47
Azimuth
11.905° NNE
Elevation
-50.57°
Doppler factor
1
Orbital elements
Apogee altitude
485.782 km
Perigee altitude
484.154 km
Semi-major axis
6,863.105 km
Eccentricity
0.00012
Inclination
42.9989°
RAAN
243.0302°
Arg. of periapsis
265.5354°
True anomaly
Unknown
Mean anomaly
94.5362°
Eccentric anomaly
Unknown
Mean motion
3.81735 °/min
Orbital period
94.31 mins
BSTAR
0.00080651
Loading maneuver chart data...
Loading SW <> Apogee altitude chart data...
Loading historical data...
Loading historical data...
Loading historical data...
Loading historical data...
Loading historical data...
Loading historical data...
Loading historical data...

STARLINK-32564 Visibility forecast

Observer location: undefined°, undefined°

Span
Click to sort rows by Start time (UTC) header in descending order
Start Az.
Max El. time (UTC)
Max El. Az.
Max El.
End time (UTC)
End Az.
6 mins2025-07-06 07:04:58.953Z222.4° SW2025-07-06 07:07:58.953Z159.239° S34.45°2025-07-06 07:10:58.953Z83.763° E
5 mins2025-07-06 08:44:58.953Z274.152° WNW2025-07-06 08:46:58.953Z345.455° N41.592°2025-07-06 08:49:58.953Z68.764° E
5 mins2025-07-06 10:23:58.953Z294.876° NW2025-07-06 10:25:58.953Z348.5° N39.03°2025-07-06 10:28:58.953Z82.493° E
5 mins2025-07-06 12:02:58.953Z278.48° WNW2025-07-06 12:04:58.953Z226.378° WSW40.351°2025-07-06 12:07:58.953Z127.396° SE
|